Location: Emblem
(44.5058°N, 108.3917°W)
Time: 20:10:29
(UTC+00:00)

ISS - Visible Passes

Search period start: 19 January 2022 00:00
Search period end: 29 January 2022 00:00
Orbit: 413 x 422 km, 51.6° (Epoch: 19 January)

Date Brightness Start Highest point End Pass type
(mag) Time Alt. Az. Time Alt. Az. Time Alt. Az.
19 Jan -1.9 00:58:12 10° S 01:00:31 18° SE 01:02:14 13° E visible
19 Jan -1.5 02:33:39 10° WSW 02:35:11 25° WSW 02:35:11 25° WSW visible
20 Jan -3.9 01:45:43 10° SW 01:49:02 76° SSE 01:49:26 64° E visible
21 Jan -3.3 00:58:01 10° SW 01:01:13 46° SE 01:03:41 15° ENE visible
21 Jan -1.5 02:34:57 10° W 02:36:38 24° WNW 02:36:38 24° WNW visible
22 Jan -3.2 01:46:56 10° W 01:50:10 48° NNW 01:50:53 40° NNE visible
23 Jan -3.6 00:59:03 10° WSW 01:02:22 71° NNW 01:05:09 14° NE visible
23 Jan -1.2 02:36:43 10° WNW 02:38:06 19° NW 02:38:06 19° NW visible
24 Jan -2.4 01:48:45 10° WNW 01:51:44 29° NNW 01:52:24 27° N visible
25 Jan -2.7 01:00:51 10° W 01:03:59 36° NNW 01:06:45 12° NE visible
25 Jan -1.1 02:38:39 10° NW 02:39:42 16° NW 02:39:42 16° NW visible
26 Jan -2.2 01:50:54 10° WNW 01:53:40 23° N 01:54:06 23° N visible
27 Jan -2.2 01:03:09 10° WNW 01:06:01 25° N 01:08:33 12° NE visible
27 Jan -1.1 02:40:36 10° NW 02:41:31 16° NW 02:41:31 16° NW visible
28 Jan -2.3 01:53:07 10° NW 01:55:55 24° N 01:56:03 24° N visible
